Location: *
(53.9002°N, 27.5624°E)
Time: 21:17:10
(UTC+00:00)

YAOGAN 1 - Pass Details

Date: 12 November 2019
Orbit: 619 x 621 km, 98.0° (Epoch: 13 December)

Event Time Altitude Azimuth Distance (km) Brightness Sun altitude
Rises 15:57:22 0° 150° (SSE) 2,890 5.8 -14.8°
Reaches altitude 10° 15:59:34 10° 146° (SSE) 1,989 4.9 -15.1°
Maximum altitude 16:03:47 55° 70° (ENE) 750 2.6 -15.7°
Drops below altitude 10° 16:08:03 10° 352° (N) 2,003 5.2 -16.3°
Sets 16:10:16 0° 348° (NNW) 2,913 6.1 -16.6°
